Location: Hertford
(51.7958°N, 0.0812°W)
Time: 19:47:49
(UTC+01:00)

ISS - Visible Passes

Search period start: 16 May 2021 00:00
Search period end: 26 May 2021 00:00
Orbit: 417 x 422 km, 51.6° (Epoch: 15 May)

Date Brightness Start Highest point End Pass type
(mag) Time Alt. Az. Time Alt. Az. Time Alt. Az.
16 May -3.9 00:15:16 10° W 00:18:39 85° S 00:22:03 10° E visible
16 May -3.9 01:52:05 10° W 01:55:28 73° SSW 01:58:50 10° ESE visible
16 May -2.7 03:29:06 10° W 03:31:58 26° SSW 03:34:49 10° SSE visible
16 May -2.8 21:51:47 10° SSW 21:54:41 27° SSE 21:57:36 10° E visible
16 May -3.9 23:27:51 10° WSW 23:31:12 76° SSE 23:34:35 10° E visible
17 May -3.9 01:04:37 10° W 01:08:01 83° S 01:11:24 10° E visible
17 May -3.1 02:41:31 10° W 02:44:59 34° SSW 02:47:44 10° SE visible
17 May -3.8 22:40:26 10° WSW 22:43:46 63° SSE 22:47:07 10° E visible
18 May -3.9 00:17:10 10° W 00:20:33 89° SSW 00:22:53 19° E visible
18 May -2.4 01:54:00 10° W 01:55:46 26° W 01:55:46 26° W visible
18 May -3.6 21:53:05 10° SW 21:56:21 49° SSE 21:59:38 10° E visible
18 May -3.8 23:29:42 10° W 23:33:05 90° S 23:36:27 10° E visible
19 May -3.5 01:06:31 10° W 01:09:22 52° WSW 01:09:22 52° WSW visible
19 May -3.8 22:42:14 10° W 22:45:36 85° S 22:48:59 10° E visible
20 May -3.9 00:19:03 10° W 00:22:25 73° SSW 00:23:11 49° SE visible
20 May -1.1 01:56:04 10° W 01:56:07 10° W 01:56:07 10° W visible
20 May -3.8 21:54:47 10° WSW 21:58:09 76° SSE 22:01:32 10° E visible
20 May -3.9 23:31:35 10° W 23:34:57 83° S 23:37:05 21° ESE visible
21 May -2.1 01:08:28 10° W 01:10:01 22° WSW 01:10:01 22° WSW visible
21 May -3.8 22:44:06 10° W 22:47:29 89° S 22:50:52 10° E visible
22 May -3.4 00:20:55 10° W 00:23:58 45° SW 00:23:58 45° SW visible
22 May -3.8 21:56:37 10° W 21:59:59 90° S 22:03:23 10° E visible
22 May -3.7 23:33:25 10° W 23:36:45 60° SSW 23:37:56 35° SE visible
23 May -1.2 01:10:42 10° W 01:10:52 11° W 01:10:52 11° W visible
23 May -3.8 22:45:56 10° W 22:49:18 73° SSW 22:51:57 15° ESE visible
24 May -2.2 00:22:57 10° W 00:24:53 22° WSW 00:24:53 22° WSW visible
24 May -3.8 21:58:27 10° W 22:01:50 83° S 22:05:12 10° E visible
24 May -3.0 23:35:20 10° W 23:38:26 34° SSW 23:38:55 33° S visible
25 May -3.4 22:47:47 10° W 22:51:02 46° SSW 22:52:58 21° SE visible
